Location: Selby
(38.0566°N, 122.2439°W)
Time: 05:56:30
(UTC+00:00)

CZ-2C R/B - Pass Details

Date: 22 May 2024
Orbit: 665 x 780 km, 98.4° (Epoch: 13 June)

Event Time Altitude Azimuth Distance (km) Brightness Sun altitude
Rises 12:19:24 0° 4° (N) 3,118 6.2 -6.5°
Reaches altitude 10° 12:21:49 10° 356° (N) 2,176 5.3 -6.1°
Maximum altitude 12:26:11 38° 290° (WNW) 1,053 3.0 -5.4°
Drops below altitude 10° 12:30:25 10° 222° (SW) 2,108 4.2 -4.7°
Enters shadow 12:32:02 - 216° (SW) 2,732 4.8 -4.4°
